period_start,C,m1,H,J0,J1,J2,J3,J4,J5,JA,JB,JC,JD,JJ,JK,JN,#
2017-01-15 00:02:48,0.10,8.72,0.00,22.51,26.60,30.17,14.94,50.10,1042.99,2027.04,1366.16,1611.86,1831.43,600.00,612.46,46.28,0000 0000 0000 0000 000000
2017-01-15 00:07:49,0.05,8.73,0.00,22.50,26.60,30.15,14.98,50.16,1043.15,2027.03,1365.98,1611.11,1831.00,600.00,612.63,46.33,0000 0000 0000 0000 000000
2017-01-15 00:12:50,0.08,8.73,0.00,22.50,26.61,30.11,14.95,50.06,1043.42,2027.02,1365.28,1611.00,1830.74,599.90,612.57,46.38,0000 0000 0000 0000 000000
2017-01-15 00:17:51,0.04,8.73,0.00,22.49,26.62,30.02,15.01,49.87,1043.26,2027.02,1364.98,1610.85,1830.04,599.98,612.69,46.43,0000 0000 0000 0000 000000
2017-01-15 00:22:52,0.10,8.74,0.00,22.49,26.62,29.93,14.97,49.97,1043.01,2027.02,1364.51,1610.13,1829.98,599.93,612.38,46.48,0000 0000 0000 0000 000000
2017-01-15 00:27:53,0.06,8.74,0.00,22.49,26.62,29.97,14.95,49.87,1043.00,2027.01,1364.01,1610.00,1829.37,599.85,612.40,46.53,0000 0000 0000 0000 000000
2017-01-15 00:32:54,0.06,8.74,0.00,22.49,26.62,29.98,14.98,49.81,1043.00,2027.00,1363.63,1609.78,1829.00,600.13,612.66,46.58,0000 0000 0000 0000 000000
2017-01-15 00:37:55,0.10,8.75,0.00,22.50,26.62,30.00,14.94,49.96,1043.00,2027.00,1363.02,1609.09,1828.63,599.85,612.39,46.63,0000 0000 0000 0000 000000
2017-01-15 00:42:57,0.06,8.75,0.00,22.49,26.62,29.96,14.89,49.96,1043.00,2027.01,1362.60,1608.99,1828.02,599.83,612.33,46.68,0000 0000 0000 0000 000000
2017-01-15 00:47:58,0.07,8.76,0.00,22.47,26.62,29.93,14.97,50.14,1042.99,2027.03,1362.02,1608.68,1827.89,600.05,612.73,46.73,0000 0000 0000 0000 000000
2017-01-15 00:52:59,0.09,8.76,0.00,22.48,26.62,29.94,14.98,50.03,1042.99,2027.01,1361.69,1608.05,1827.13,600.23,612.81,46.78,0000 0000 0000 0000 000000
2017-01-15 00:58:01,0.04,8.77,0.00,22.47,26.62,29.94,15.01,50.14,1042.96,2027.01,1361.03,1607.99,1826.98,600.36,612.93,46.84,0000 0000 0000 0000 000000
2017-01-15 01:03:02,0.14,8.77,0.00,22.44,26.61,30.00,15.05,50.32,1042.98,2027.04,1360.46,1607.52,1826.35,599.96,612.59,46.89,0000 0000 0000 0000 000000
2017-01-15 01:08:03,0.03,8.78,0.00,22.46,26.60,29.86,14.97,50.15,1042.99,2027.01,1359.95,1607.01,1825.98,600.14,612.77,46.94,0000 0000 0000 0000 000000
2017-01-15 01:13:05,0.11,8.78,0.00,22.46,26.60,29.95,14.89,49.98,1043.01,2027.03,1359.15,1606.84,1825.46,599.96,612.65,46.99,0000 0000 0000 0000 000000
2017-01-15 01:18:06,0.07,8.78,0.00,22.44,26.60,29.97,14.92,49.90,1043.02,2027.03,1358.91,1606.08,1825.00,600.14,612.91,47.04,0000 0000 0000 0000 000000
2017-01-15 01:23:07,0.09,8.79,0.00,22.43,26.60,29.76,14.99,50.10,1043.18,2027.04,1358.10,1606.00,1824.51,600.05,612.82,47.09,0000 0000 0000 0000 000000
2017-01-15 01:28:09,0.09,8.79,0.00,22.42,26.60,29.81,14.93,49.97,1043.28,2027.04,1357.77,1605.43,1824.00,600.15,613.09,47.14,0000 0000 0000 0000 000000
2017-01-15 01:33:10,0.08,8.80,0.00,22.43,26.60,29.95,14.98,50.01,1043.02,2027.04,1357.04,1605.01,1823.58,600.12,612.80,47.19,0000 0000 0000 0000 000000
2017-01-15 01:38:11,0.06,8.80,0.00,22.44,26.60,29.98,14.93,50.13,1042.99,2027.04,1356.70,1604.93,1823.01,599.99,612.70,47.24,0000 0000 0000 0000 000000
2017-01-15 01:43:12,0.11,8.81,0.00,22.44,26.60,29.95,14.98,50.15,1043.00,2027.06,1356.02,1604.18,1822.62,600.06,612.70,47.29,0000 0000 0000 0000 000000
2017-01-15 01:48:14,0.07,8.81,0.00,22.43,26.60,29.99,14.96,50.17,1043.07,2027.05,1355.53,1603.99,1822.02,599.91,612.63,47.34,0000 0000 0000 0000 000000
2017-01-15 01:53:15,0.09,8.81,0.00,22.45,26.60,30.01,14.91,50.10,1043.00,2027.03,1355.01,1603.54,1821.62,599.83,612.47,47.39,0000 0000 0000 0000 000000
2017-01-15 01:58:16,0.10,8.82,0.00,22.46,26.60,29.99,15.02,50.01,1043.00,2027.06,1354.38,1603.02,1821.02,600.07,612.84,47.44,0000 0000 0000 0000 000000
2017-01-15 02:03:17,0.09,8.82,0.00,22.47,26.60,29.97,14.96,49.84,1043.02,2027.05,1353.79,1602.70,1820.44,600.01,612.48,47.49,0000 0000 0000 0000 000000
2017-01-15 02:08:19,0.10,8.83,0.00,22.47,26.60,29.98,14.94,50.05,1042.99,2027.10,1352.95,1602.03,1819.91,599.86,612.44,47.54,0000 0000 0000 0000 000000
2017-01-15 02:13:20,0.16,8.84,0.00,22.46,26.60,29.97,14.87,50.12,1043.07,2027.07,1352.06,1601.39,1819.07,599.45,612.12,47.59,0000 0000 0000 0000 000000
2017-01-15 02:18:21,0.11,8.84,0.00,22.46,26.60,30.02,14.94,49.95,1043.18,2027.05,1351.24,1600.96,1818.36,599.78,612.47,47.64,0000 0000 0000 0000 000000
2017-01-15 02:23:23,0.12,8.85,0.00,22.47,26.60,29.94,15.03,50.08,1043.07,2027.04,1350.69,1600.20,1817.77,600.41,612.99,47.69,0000 0000 0000 0000 000000
2017-01-15 02:28:24,0.09,8.86,0.00,22.47,26.60,29.99,14.97,50.27,1043.01,2027.03,1349.85,1599.82,1817.03,599.98,612.60,47.75,0000 0000 0000 0000 000000
2017-01-15 02:33:25,0.14,8.86,0.00,22.47,26.60,30.03,14.98,50.00,1043.12,2027.05,1349.05,1599.05,1816.31,600.01,612.74,47.80,0000 0000 0000 0000 000000
2017-01-15 02:38:26,0.07,8.87,0.00,22.49,26.61,30.04,14.98,50.01,1043.03,2027.04,1348.38,1598.96,1815.83,600.01,612.47,47.85,0000 0000 0000 0000 000000
2017-01-15 02:43:27,0.10,8.87,0.00,22.50,26.62,30.08,14.99,50.11,1043.03,2027.02,1347.90,1598.19,1815.06,599.90,612.48,47.90,0000 0000 0000 0000 000000
2017-01-15 02:48:29,0.10,8.88,0.00,22.48,26.62,30.01,14.98,50.19,1043.02,2027.01,1347.06,1597.95,1814.43,600.27,612.66,47.95,0000 0000 0000 0000 000000
2017-01-15 02:53:30,0.13,8.88,0.00,22.50,26.62,30.08,14.88,50.07,1042.99,2027.01,1346.46,1597.16,1813.96,599.84,612.48,48.00,0000 0000 0000 0000 000000
2017-01-15 02:58:31,0.06,8.89,0.00,22.51,26.62,30.06,14.96,50.13,1042.98,2027.01,1345.86,1596.93,1813.20,599.83,612.25,48.05,0000 0000 0000 0000 000000
2017-01-15 03:03:32,0.14,8.90,0.00,22.48,26.62,30.06,15.00,50.17,1042.98,2027.01,1345.06,1596.16,1812.80,599.80,612.37,48.10,0000 0000 0000 0000 000000
2017-01-15 03:08:33,0.08,8.90,0.00,22.49,26.62,30.08,15.01,50.09,1042.98,2027.00,1344.55,1595.98,1812.06,599.98,612.43,48.15,0000 0000 0000 0000 000000
2017-01-15 03:13:35,0.11,8.90,0.00,22.50,26.62,30.06,14.92,50.02,1042.98,2027.01,1343.95,1595.42,1811.69,600.03,612.55,48.20,0000 0000 0000 0000 000000
2017-01-15 03:18:36,0.09,8.91,0.00,22.51,26.63,30.10,14.99,50.31,1042.93,2027.00,1343.12,1595.00,1811.02,599.83,612.34,48.25,0000 0000 0000 0000 000000
2017-01-15 03:23:37,0.11,8.91,0.00,22.51,26.64,30.04,14.95,50.33,1042.66,2027.00,1342.87,1594.41,1810.48,599.95,612.20,48.30,0000 0000 0000 0000 000000
2017-01-15 03:28:39,0.07,8.92,0.00,22.49,26.64,29.86,14.95,50.29,1042.52,2027.00,1342.06,1594.00,1810.00,600.17,612.35,48.35,0000 0000 0000 0000 000000
2017-01-15 03:33:40,0.12,8.92,0.00,22.47,26.64,29.91,14.93,50.18,1042.56,2027.01,1341.61,1593.65,1809.38,600.06,612.39,48.40,0000 0000 0000 0000 000000
2017-01-15 03:38:41,0.06,8.93,0.00,22.46,26.64,29.93,14.93,50.20,1042.95,2027.00,1340.96,1593.02,1808.98,599.84,612.43,48.45,0000 0000 0000 0000 000000
2017-01-15 03:43:42,0.13,8.93,0.00,22.47,26.64,29.97,14.97,50.12,1042.89,2027.00,1340.14,1592.78,1808.21,600.00,612.50,48.50,0000 0000 0000 0000 000000
2017-01-15 03:48:44,0.08,8.94,0.00,22.48,26.64,29.87,14.89,50.17,1042.53,2027.00,1339.72,1592.05,1807.96,600.03,612.31,48.55,0000 0000 0000 0000 000000
2017-01-15 03:53:45,0.08,8.95,0.00,22.48,26.64,29.92,14.92,50.20,1042.56,2027.01,1339.03,1591.96,1807.17,600.05,612.37,48.60,0000 0000 0000 0000 000000
2017-01-15 03:58:47,0.12,8.95,0.00,22.47,26.64,29.82,14.97,50.15,1042.52,2027.00,1338.36,1591.21,1806.88,600.08,612.46,48.66,0000 0000 0000 0000 000000
2017-01-15 04:03:48,0.05,8.96,0.00,22.46,26.64,29.87,14.89,50.26,1042.67,2027.00,1337.92,1590.98,1806.10,600.06,612.37,48.71,0000 0000 0000 0000 000000
2017-01-15 04:08:49,0.13,8.96,0.00,22.44,26.63,29.86,14.99,50.33,1042.51,2027.02,1337.15,1590.45,1805.83,599.85,612.17,48.76,0000 0000 0000 0000 000000
2017-01-15 04:13:51,0.08,8.97,0.00,22.42,26.62,29.94,14.96,50.30,1042.50,2027.01,1336.68,1590.00,1805.06,599.80,612.24,48.81,0000 0000 0000 0000 000000
2017-01-15 04:18:52,0.06,8.97,0.00,22.39,26.62,29.82,15.03,50.34,1042.47,2027.01,1336.02,1589.74,1804.89,600.08,612.49,48.86,0000 0000 0000 0000 000000
2017-01-15 04:23:53,0.14,8.97,0.00,22.40,26.62,29.86,14.97,50.17,1042.47,2027.02,1335.42,1589.04,1804.09,600.16,612.72,48.91,0000 0000 0000 0000 000000
2017-01-15 04:28:54,0.02,8.98,0.00,22.37,26.62,29.86,14.99,50.51,1042.08,2027.02,1334.97,1588.96,1803.94,599.93,612.26,48.96,0000 0000 0000 0000 000000
2017-01-15 04:33:55,0.16,8.99,0.00,22.35,26.62,29.86,14.93,50.56,1042.02,2027.02,1334.22,1588.30,1803.17,599.81,612.08,49.01,0000 0000 0000 0000 000000
2017-01-15 04:38:57,0.02,8.99,0.00,22.34,26.61,29.90,14.87,50.27,1042.22,2027.03,1333.94,1588.01,1802.97,599.41,611.72,49.06,0000 0000 0000 0000 000000
2017-01-15 04:43:58,0.12,8.99,0.00,22.31,26.60,29.87,14.93,50.23,1042.36,2027.03,1333.17,1587.87,1802.28,600.02,612.54,49.11,0000 0000 0000 0000 000000
2017-01-15 04:49:00,0.08,9.00,0.00,22.29,26.60,29.85,14.96,50.38,1042.35,2027.09,1332.87,1587.11,1802.00,599.89,612.40,49.16,0000 0000 0000 0000 000000
2017-01-15 04:54:01,0.08,9.00,0.00,22.30,26.60,29.86,14.94,50.19,1042.49,2027.06,1332.12,1586.99,1801.55,599.91,612.73,49.21,0000 0000 0000 0000 000000
2017-01-15 04:59:02,0.03,9.00,0.00,22.32,26.58,29.92,15.01,50.23,1042.50,2027.04,1331.98,1586.75,1801.02,600.08,612.64,49.26,0000 0000 0000 0000 000000
2017-01-15 05:04:04,0.13,9.01,0.00,22.32,26.57,29.90,14.89,50.09,1042.53,2027.07,1331.31,1586.08,1800.88,599.81,612.52,49.31,0000 0000 0000 0000 000000
2017-01-15 05:09:05,0.05,9.01,0.00,22.32,26.57,29.90,15.00,50.06,1042.51,2027.21,1331.00,1586.00,1800.19,600.59,613.23,49.36,0000 0000 0000 0000 000000
2017-01-15 05:14:06,0.08,9.02,0.00,22.33,26.57,29.85,14.87,50.17,1042.51,2027.13,1330.44,1585.81,1799.99,599.68,612.14,49.41,0000 0000 0000 0000 000000
2017-01-15 05:19:08,0.08,9.02,0.00,22.34,26.57,29.83,14.97,50.12,1042.51,2027.13,1330.00,1585.11,1799.59,600.21,612.74,49.46,0000 0000 0000 0000 000000
2017-01-15 05:24:09,0.06,9.02,0.00,22.34,26.57,29.80,14.94,50.21,1042.50,2027.21,1329.72,1585.00,1799.03,600.03,612.52,49.52,0000 0000 0000 0000 000000
2017-01-15 05:29:10,0.02,9.03,0.00,22.34,26.56,29.84,14.91,50.15,1042.43,2027.09,1329.03,1584.90,1798.95,599.97,612.46,49.57,0000 0000 0000 0000 000000
2017-01-15 05:34:12,0.14,9.03,0.00,22.32,26.55,29.83,14.95,50.28,1042.31,2027.34,1328.90,1584.29,1798.37,599.98,612.51,49.62,0000 0000 0000 0000 000000
2017-01-15 05:39:13,0.11,9.04,0.00,22.32,26.55,29.80,14.97,50.32,1042.46,2027.64,1328.14,1584.02,1798.01,600.09,612.69,49.67,0000 0000 0000 0000 000000
2017-01-15 05:44:14,-0.00,9.04,0.00,22.31,26.55,29.74,14.93,50.29,1042.50,2027.56,1328.00,1583.99,1797.95,599.78,612.37,49.72,0000 0000 0000 0000 000000
2017-01-15 05:49:15,0.11,9.04,0.00,22.31,26.55,29.75,15.04,50.28,1042.47,2027.68,1327.63,1583.81,1797.38,600.26,612.88,49.77,0000 0000 0000 0000 000000
2017-01-15 05:54:16,0.07,9.05,0.00,22.32,26.54,29.77,14.99,50.13,1042.50,2027.68,1327.02,1583.14,1797.02,600.08,612.75,49.82,0000 0000 0000 0000 000000
2017-01-15 05:59:18,0.03,9.05,0.00,22.31,26.52,29.84,14.92,50.19,1042.51,2027.86,1326.97,1583.00,1796.99,600.06,612.80,49.87,0000 0000 0000 0000 000000
2017-01-15 06:04:19,0.07,9.05,0.00,22.32,26.52,29.78,14.96,50.17,1042.50,2027.92,1326.48,1583.00,1796.78,599.80,612.36,49.92,0000 0000 0000 0000 000000
2017-01-15 06:09:21,0.04,9.06,0.00,22.32,26.52,29.78,14.95,50.13,1042.51,2027.95,1326.03,1582.95,1796.13,600.12,612.84,49.97,0000 0000 0000 0000 000000
2017-01-15 06:14:22,0.03,9.06,0.00,22.33,26.52,29.82,14.90,50.30,1042.52,2027.97,1325.99,1582.63,1796.01,600.11,612.65,50.02,0000 0000 0000 0000 000000
2017-01-15 06:19:23,0.03,9.06,0.00,22.32,26.52,29.76,14.91,50.25,1042.52,2027.94,1325.87,1582.09,1795.99,600.23,612.86,50.07,0000 0000 0000 0000 000000
2017-01-15 06:24:24,0.08,9.06,0.00,22.32,26.52,29.84,14.90,50.18,1042.90,2027.95,1325.14,1582.01,1795.77,599.90,612.73,50.12,0000 0000 0000 0000 000000
2017-01-15 06:29:25,0.02,9.07,0.00,22.33,26.51,29.78,15.00,50.13,1042.99,2027.94,1325.00,1581.99,1795.08,600.49,613.43,50.17,0000 0000 0000 0000 000000
2017-01-15 06:34:27,0.02,9.07,0.00,22.34,26.50,29.79,14.90,50.07,1042.99,2027.93,1324.91,1581.90,1795.00,599.81,612.82,50.22,0000 0000 0000 0000 000000
2017-01-15 06:39:28,0.10,9.07,0.00,22.34,26.50,29.83,14.95,50.20,1042.99,2027.95,1324.31,1581.45,1794.99,600.07,612.98,50.27,0000 0000 0000 0000 000000
2017-01-15 06:44:30,0.04,9.07,0.00,22.33,26.50,29.80,14.90,50.21,1042.95,2027.96,1324.02,1581.04,1794.79,599.88,612.73,50.32,0000 0000 0000 0000 000000
2017-01-15 06:49:31,0.03,9.08,0.00,22.34,26.50,29.68,14.87,50.17,1042.96,2027.97,1323.99,1581.00,1794.11,599.66,612.51,50.37,0000 0000 0000 0000 000000
2017-01-15 06:54:33,0.03,9.08,0.00,22.36,26.50,29.62,14.95,50.17,1042.67,2027.98,1323.63,1580.99,1794.00,599.90,612.62,50.42,0000 0000 0000 0000 000000
2017-01-15 06:59:34,0.04,9.08,0.00,22.36,26.50,29.77,15.00,50.23,1042.60,2027.97,1323.08,1580.98,1793.99,600.13,612.80,50.48,0000 0000 0000 0000 000000
2017-01-15 07:04:35,0.04,9.08,0.00,22.36,26.50,29.88,14.99,50.34,1042.71,2027.98,1322.99,1580.68,1793.88,600.08,612.74,50.53,0000 0000 0000 0000 000000
2017-01-15 07:09:36,0.09,9.09,0.00,22.37,26.50,29.81,14.91,50.33,1042.81,2027.98,1322.76,1580.09,1793.26,599.96,612.65,50.58,0000 0000 0000 0000 000000
2017-01-15 07:14:38,0.05,9.09,0.00,22.37,26.50,29.86,14.96,50.26,1042.98,2027.98,1322.09,1580.01,1793.01,600.10,612.84,50.63,0000 0000 0000 0000 000000
2017-01-15 07:19:39,0.00,9.09,0.00,22.37,26.50,29.90,14.98,50.32,1042.98,2027.97,1322.01,1580.00,1793.00,600.15,613.07,50.68,0000 0000 0000 0000 000000
2017-01-15 07:24:40,0.00,9.09,0.00,22.38,26.50,29.93,14.94,50.38,1042.93,2027.96,1322.00,1579.97,1792.95,599.99,612.82,50.73,0000 0000 0000 0000 000000
2017-01-15 07:29:41,0.10,9.09,0.00,22.38,26.50,29.82,14.95,50.42,1042.84,2027.98,1321.74,1579.71,1792.34,599.89,612.46,50.78,0000 0000 0000 0000 000000
2017-01-15 07:34:43,0.07,9.10,0.00,22.36,26.50,29.89,14.97,50.33,1042.98,2027.97,1321.11,1579.12,1792.01,600.02,612.93,50.83,0000 0000 0000 0000 000000
2017-01-15 07:39:44,0.01,9.10,0.00,22.37,26.50,29.86,14.92,50.34,1042.99,2027.98,1321.00,1579.02,1792.00,600.43,613.34,50.88,0000 0000 0000 0000 000000
2017-01-15 07:44:45,0.00,9.10,0.00,22.37,26.50,29.84,14.98,50.27,1042.99,2027.99,1320.97,1579.00,1791.99,600.04,612.81,50.93,0000 0000 0000 0000 000000
2017-01-15 07:49:47,0.07,9.10,0.00,22.37,26.50,29.71,14.98,50.22,1042.99,2027.98,1320.48,1578.97,1791.83,600.29,612.72,50.98,0000 0000 0000 0000 000000
2017-01-15 07:54:48,0.04,9.11,0.00,22.38,26.50,29.75,15.04,50.36,1042.99,2027.95,1320.03,1578.91,1791.22,600.14,612.95,51.03,0000 0000 0000 0000 000000
2017-01-15 07:59:49,0.06,9.11,0.00,22.37,26.50,29.68,14.97,50.27,1042.98,2027.96,1320.00,1578.26,1791.01,600.05,612.73,51.08,0000 0000 0000 0000 000000
2017-01-15 08:04:50,0.01,9.11,0.00,22.37,26.50,29.86,14.99,50.33,1042.99,2027.97,1319.94,1578.03,1791.00,600.12,612.88,51.13,0000 0000 0000 0000 000000
2017-01-15 08:09:51,0.05,9.11,0.00,22.37,26.50,29.85,14.96,50.23,1043.00,2027.94,1319.26,1578.00,1790.95,600.01,612.77,51.18,0000 0000 0000 0000 000000
2017-01-15 08:14:53,0.04,9.11,0.00,22.35,26.50,29.89,15.00,50.23,1042.99,2027.94,1319.01,1578.00,1790.51,599.97,612.82,51.23,0000 0000 0000 0000 000000
2017-01-15 08:19:54,0.01,9.12,0.00,22.36,26.50,29.76,14.94,50.13,1043.11,2027.96,1318.99,1577.96,1790.06,600.14,613.08,51.28,0000 0000 0000 0000 000000
2017-01-15 08:24:55,0.02,9.12,0.00,22.36,26.50,29.71,14.93,50.03,1043.25,2027.95,1318.93,1577.77,1790.00,599.76,612.70,51.33,0000 0000 0000 0000 000000
2017-01-15 08:29:57,0.10,9.12,0.00,22.37,26.50,29.86,15.03,50.03,1043.35,2027.94,1318.23,1577.19,1789.98,600.34,613.31,51.39,0000 0000 0000 0000 000000
2017-01-15 08:34:58,0.01,9.12,0.00,22.40,26.50,29.80,14.93,49.99,1043.47,2027.94,1318.01,1577.03,1789.87,600.09,612.98,51.44,0000 0000 0000 0000 000000
2017-01-15 08:39:59,0.03,9.12,0.00,22.39,26.51,29.83,14.94,50.23,1043.29,2027.96,1318.00,1577.00,1789.28,599.67,612.58,51.49,0000 0000 0000 0000 000000
2017-01-15 08:45:01,0.01,9.12,0.00,22.40,26.52,29.93,14.99,50.26,1043.00,2027.93,1317.88,1576.99,1789.01,600.03,612.72,51.54,0000 0000 0000 0000 000000
2017-01-15 08:50:02,0.05,9.13,0.00,22.42,26.52,29.91,14.96,50.23,1042.99,2027.90,1317.21,1576.95,1789.00,600.04,612.69,51.59,0000 0000 0000 0000 000000
2017-01-15 08:55:03,0.06,9.13,0.00,22.42,26.52,29.96,14.97,50.24,1043.19,2027.91,1317.01,1576.47,1788.96,599.94,612.73,51.64,0000 0000 0000 0000 000000
2017-01-15 09:00:05,0.04,9.13,0.00,22.41,26.52,29.95,14.97,50.20,1043.47,2027.90,1316.99,1576.05,1788.53,600.23,613.24,51.69,0000 0000 0000 0000 000000
2017-01-15 09:05:06,0.03,9.13,0.00,22.42,26.52,29.97,14.94,50.16,1043.47,2027.84,1316.72,1576.00,1788.04,599.76,612.84,51.74,0000 0000 0000 0000 000000
2017-01-15 09:10:08,0.04,9.14,0.00,22.44,26.52,29.95,14.99,49.98,1043.47,2027.84,1316.12,1576.00,1788.00,599.97,612.79,51.79,0000 0000 0000 0000 000000
2017-01-15 09:15:08,0.02,9.14,0.00,22.43,26.54,29.90,14.92,50.23,1043.47,2027.85,1316.01,1575.98,1788.00,600.10,613.09,51.84,0000 0000 0000 0000 000000
2017-01-15 09:20:10,0.01,9.14,0.00,22.44,26.54,30.02,14.95,50.44,1043.42,2027.92,1315.99,1575.90,1787.96,599.88,612.78,51.89,0000 0000 0000 0000 000000
2017-01-15 09:25:11,0.11,9.14,0.00,22.43,26.55,29.95,14.98,50.32,1043.46,2027.86,1315.65,1575.34,1787.36,599.92,612.96,51.94,0000 0000 0000 0000 000000
2017-01-15 09:30:12,0.04,9.15,0.00,22.42,26.55,30.00,14.96,50.22,1043.47,2027.81,1315.05,1575.01,1787.02,599.72,612.64,51.99,0000 0000 0000 0000 000000
2017-01-15 09:35:13,0.01,9.15,0.00,22.44,26.55,30.00,15.02,50.25,1043.47,2027.80,1315.00,1575.00,1787.00,600.29,613.18,52.04,0000 0000 0000 0000 000000
2017-01-15 09:40:14,-0.03,9.15,0.00,22.43,26.55,30.02,14.94,50.39,1043.47,2027.72,1314.99,1575.00,1786.98,599.88,612.83,52.09,0000 0000 0000 0000 000000
2017-01-15 09:45:16,0.01,9.15,0.00,22.44,26.55,30.00,14.94,50.29,1043.47,2027.55,1314.89,1574.98,1786.73,599.90,612.74,52.14,0000 0000 0000 0000 000000
2017-01-15 09:50:17,0.06,9.15,0.00,22.46,26.55,30.01,14.96,50.33,1043.47,2027.27,1314.25,1574.77,1786.11,600.05,612.77,52.19,0000 0000 0000 0000 000000
2017-01-15 09:55:18,0.06,9.15,0.00,22.46,26.56,29.94,14.94,50.36,1043.46,2027.28,1314.01,1574.25,1786.01,599.69,612.52,52.25,0000 0000 0000 0000 000000
2017-01-15 10:00:19,-0.01,9.15,0.00,22.43,26.57,29.96,15.04,50.47,1043.36,2027.22,1313.99,1574.04,1786.00,600.17,613.10,52.30,0000 0000 0000 0000 000000
2017-01-15 10:05:21,0.01,9.15,0.00,22.46,26.57,29.95,14.99,50.33,1043.46,2027.21,1313.91,1574.01,1785.98,600.15,612.99,52.35,0000 0000 0000 0000 000000
2017-01-15 10:10:22,0.06,9.15,0.00,22.43,26.57,29.88,14.92,50.36,1043.47,2027.21,1313.33,1574.00,1785.79,599.75,612.74,52.40,0000 0000 0000 0000 000000
2017-01-15 10:15:23,0.03,9.16,0.00,22.40,26.57,29.93,14.98,50.33,1043.45,2027.16,1313.01,1573.98,1785.16,600.22,613.20,52.45,0000 0000 0000 0000 000000
2017-01-15 10:20:25,0.01,9.16,0.00,22.40,26.57,29.95,14.96,50.35,1043.39,2027.13,1313.00,1573.92,1785.01,600.09,613.06,52.50,0000 0000 0000 0000 000000
2017-01-15 10:25:26,0.05,9.16,0.00,22.39,26.56,29.83,14.97,50.40,1043.33,2027.19,1312.96,1573.55,1785.00,600.09,613.02,52.55,0000 0000 0000 0000 000000
2017-01-15 10:30:27,0.08,9.16,0.00,22.36,26.55,29.82,14.97,50.42,1043.09,2027.42,1312.69,1573.22,1785.00,600.01,612.91,52.60,0000 0000 0000 0000 000000
2017-01-15 10:35:28,0.01,9.17,0.00,22.35,26.55,29.84,14.90,50.33,1042.99,2027.21,1312.07,1573.04,1784.93,599.86,612.70,52.65,0000 0000 0000 0000 000000
2017-01-15 10:40:29,0.06,9.17,0.00,22.34,26.55,29.89,15.02,50.37,1043.00,2027.35,1312.00,1573.00,1784.55,599.84,612.68,52.70,0000 0000 0000 0000 000000
2017-01-15 10:45:30,0.03,9.17,0.00,22.29,26.55,29.87,14.95,50.44,1043.02,2027.52,1311.99,1573.00,1784.09,599.68,612.68,52.75,0000 0000 0000 0000 000000
2017-01-15 10:50:31,0.04,9.17,0.00,22.29,26.55,29.83,14.96,50.33,1043.06,2027.62,1311.80,1572.99,1784.02,600.03,613.16,52.80,0000 0000 0000 0000 000000
2017-01-15 10:55:33,0.04,9.17,0.00,22.29,26.53,29.85,14.96,50.25,1043.04,2027.73,1311.17,1572.96,1784.00,599.86,612.86,52.85,0000 0000 0000 0000 000000
2017-01-15 11:00:34,0.04,9.18,0.00,22.29,26.52,29.82,14.91,50.23,1043.11,2027.83,1311.00,1572.87,1783.99,599.93,612.95,52.90,0000 0000 0000 0000 000000
2017-01-15 11:05:35,0.05,9.18,0.00,22.31,26.52,29.84,14.89,50.27,1043.08,2027.90,1311.00,1572.36,1783.95,599.81,612.84,52.95,0000 0000 0000 0000 000000
2017-01-15 11:10:37,0.06,9.18,0.00,22.26,26.50,29.85,14.97,50.23,1043.12,2027.95,1310.78,1572.06,1783.59,600.22,613.31,53.00,0000 0000 0000 0000 000000
2017-01-15 11:15:38,0.06,9.19,0.00,22.23,26.50,29.83,15.02,50.14,1043.28,2027.94,1310.13,1572.01,1783.07,600.11,613.42,53.05,0000 0000 0000 0000 000000
2017-01-15 11:20:40,0.01,9.19,0.00,22.24,26.49,29.81,14.94,50.35,1043.35,2027.95,1310.01,1572.00,1783.00,599.72,613.09,53.10,0000 0000 0000 0000 000000
2017-01-15 11:25:41,0.00,9.19,0.00,22.23,26.47,29.77,14.94,50.33,1043.20,2027.98,1309.98,1572.00,1783.00,599.83,613.18,53.15,0000 0000 0000 0000 000000
2017-01-15 11:30:42,0.03,9.19,0.00,22.23,26.47,29.75,14.94,50.31,1043.18,2027.98,1309.78,1571.95,1782.94,599.70,612.87,53.21,0000 0000 0000 0000 000000
2017-01-15 11:35:44,0.10,9.19,0.00,22.23,26.46,29.74,15.03,50.38,1043.08,2027.98,1309.10,1571.69,1782.43,600.07,613.20,53.26,0000 0000 0000 0000 000000
2017-01-15 11:40:45,0.03,9.20,0.00,22.20,26.45,29.71,15.05,50.33,1042.99,2027.98,1309.00,1571.24,1782.05,600.23,613.42,53.31,0000 0000 0000 0000 000000
2017-01-15 11:45:46,0.01,9.20,0.00,22.19,26.45,29.65,14.99,50.35,1043.00,2027.99,1308.98,1571.05,1782.00,599.91,613.19,53.36,0000 0000 0000 0000 000000
2017-01-15 11:50:47,0.03,9.20,0.00,22.20,26.43,29.67,14.97,50.39,1042.99,2027.99,1308.72,1571.00,1781.99,599.82,613.14,53.41,0000 0000 0000 0000 000000
2017-01-15 11:55:49,0.04,9.20,0.00,22.18,26.42,29.68,14.97,50.35,1042.99,2027.99,1308.11,1571.00,1781.98,600.30,613.45,53.46,0000 0000 0000 0000 000000
2017-01-15 12:00:50,0.02,9.20,0.00,22.18,26.42,29.72,14.98,50.38,1042.99,2027.99,1308.00,1570.99,1781.64,599.96,613.13,53.51,0000 0000 0000 0000 000000
2017-01-15 12:05:52,0.02,9.20,0.00,22.18,26.40,29.72,15.02,50.20,1042.99,2027.99,1307.98,1570.95,1781.12,600.10,613.34,53.56,0000 0000 0000 0000 000000
2017-01-15 12:10:53,0.08,9.21,0.00,22.16,26.40,29.71,14.98,50.27,1042.99,2027.99,1307.61,1570.52,1781.00,600.13,613.33,53.61,0000 0000 0000 0000 000000
2017-01-15 12:15:54,0.05,9.21,0.00,22.16,26.39,29.64,14.94,50.25,1042.99,2028.00,1307.07,1570.07,1781.00,599.73,612.95,53.66,0000 0000 0000 0000 000000
2017-01-15 12:20:56,0.01,9.21,0.00,22.15,26.37,29.62,14.86,50.31,1042.99,2028.00,1306.99,1570.00,1780.92,599.75,613.11,53.71,0000 0000 0000 0000 000000
2017-01-15 12:25:57,0.03,9.21,0.00,22.14,26.37,29.63,15.01,50.15,1043.17,2028.01,1306.95,1570.00,1780.41,599.86,613.28,53.76,0000 0000 0000 0000 000000
2017-01-15 12:30:59,0.06,9.22,0.00,22.15,26.36,29.64,15.01,50.27,1043.17,2028.00,1306.30,1569.98,1780.02,599.72,613.13,53.81,0000 0000 0000 0000 000000
2017-01-15 12:36:00,0.01,9.22,0.00,22.17,26.35,29.62,14.97,50.07,1043.07,2028.03,1306.02,1569.96,1780.00,599.99,613.26,53.86,0000 0000 0000 0000 000000
2017-01-15 12:41:01,0.02,9.22,0.00,22.16,26.35,29.61,15.00,50.17,1043.06,2028.05,1306.00,1569.80,1780.00,599.82,613.05,53.91,0000 0000 0000 0000 000000
2017-01-15 12:46:02,0.05,9.22,0.00,22.18,26.35,29.64,14.90,50.17,1043.02,2028.13,1305.95,1569.24,1779.98,599.82,613.00,53.96,0000 0000 0000 0000 000000
2017-01-15 12:51:03,0.08,9.22,0.00,22.20,26.34,29.54,14.95,50.21,1042.99,2028.15,1305.42,1569.04,1779.72,600.03,613.06,54.01,0000 0000 0000 0000 000000
2017-01-15 12:56:04,0.04,9.23,0.00,22.20,26.33,29.49,14.97,50.20,1042.99,2028.16,1305.03,1569.00,1779.09,600.11,613.34,54.07,0000 0000 0000 0000 000000